Orbital Elements at Epoch 2459200.5 (2020-Dec-17.0) TDB
Reference: JPL 33 (heliocentric ecliptic J2000)
Element | Value | Uncertainty (1-sigma) | Units |
e | .08035825230005993 | 3.679e-08 | |
a | 2.281231935308404 | 7.4849e-09 | au |
q | 2.097916123895937 | 8.2841e-08 | au |
i | 4.897103989572902 | 4.2725e-06 | deg |
node | 342.8462874522131 | 4.2927e-05 | deg |
peri | 311.8098366624091 | 5.1094e-05 | deg |
M | 131.8702230060768 | 2.9958e-05 | deg |
tp | 2458739.504346361249 (2019-Sep-13.00434636) | 0.00010396 | TDB |
period | 1258.498177426322 3.45 | 6.1938e-06 1.696e-08 | d yr |
n | .2860552414435865 | 1.4079e-09 | deg/d |
Q | 2.46454774672087 | 8.0864e-09 | au |
|
| | Orbit Determination Parameters
Additional Information
|